Content
SEND FEEDBACK

Daily
Averages
Monthly
Summary
Brazil

TERESINA, PIAUI


Home > South America > Brazil > Piaui
Elevation: 328 feet     Latitude: 05 03S     Longitude: 042 48W

WEATHER
 
SELECT A DAY
Number of Records: 168,247;   Date Range: 6/30/96 - 12/17/14
 
SHARE

PRINT THIS DATA

[ ← Previous Day ]
WEATHER ALMANAC - FEBRUARY 4, 2013
[ Next Day → ]
[ °C ]   °F
Weather ElementAverageHighLow
Temperature87.7 °F98.6 °F (4:00 pm)78.8 °F (4:00 am)
Dewpoint74.3 °F77 °F (9:00 am)71 °F (3:00 pm)
Humidity65.3 %89 % (4:00 am)38 % (3:00 pm)
Barometer29.75 in29.83 in (8:00 am)29.68 in (5:00 pm)
Wind Speed2.3 mph6.9 mph (10:00 pm)
Weather ElementAverage
Visibility7.5 mi
Wind DirectionSSW (198.4 °)

Weather ElementTotal
Precipitation---
Cooling Degree Days23.7 (Base 65)
Growing Degree Days38.7 (Base 50)
Averaged from 26 records on February 4, 2013
WEATHER CONDITIONS BREAKOUT
WIND DIRECTION BREAKOUT
WEATHER BY HOUR - FEBRUARY 4, 2013
[ °C ]   °F
Local TimeTemperatureDewpointHumidityBarometerVisibilityWind DirectionWind SpeedGust SpeedPrecipitationEventsConditions
1:00 AM84.2 °F75.2 °F74 %29.74 inNorth (350°)1.2 mphClear
2:00 AM82.4 °F75.2 °F79 %29.74 inNW (310°)1.2 mphClear
3:00 AM81.0 °F75.0 °F77 %29.74 in12.0 miNW (320°)2.3 mphPartly Cloudy
3:00 AM80.6 °F75.2 °F84 %29.74 in6.2 miNW (320°)2.3 mphScattered Clouds
4:00 AM78.8 °F75.2 °F89 %29.74 inNorth (350°)1.2 mphClear
5:00 AM80.6 °F75.2 °F84 %29.74 in6.2 miNNW (340°)1.2 mphScattered Clouds
6:00 AM80.6 °F75.2 °F84 %29.77 in6.2 miNW (310°)1.2 mphScattered Clouds
8:00 AM80.6 °F75.2 °F84 %29.83 in6.2 miWest (260°)1.2 mphMostly Cloudy
9:00 AM83.0 °F76.0 °F74 %29.83 in12.0 miWest (280°)2.3 mphScattered Clouds
9:00 AM84.2 °F77.0 °F79 %29.83 in6.2 miWest (280°)2.3 mphScattered Clouds
10:00 AM87.8 °F75.2 °F66 %29.83 in6.2 miNE (40°)3.5 mphScattered Clouds
11:00 AM89.6 °F75.2 °F62 %29.83 in6.2 miNE (50°)2.3 mphScattered Clouds
12:00 PM91.4 °F75.2 °F59 %29.80 in6.2 miNE (50°)3.5 mphMostly Cloudy
1:00 PM93.2 °F73.4 °F52 %29.77 in6.2 miEast (80°)3.5 mphScattered Clouds
2:00 PM95.0 °F71.6 °F47 %29.74 in6.2 miESE (120°)5.8 mphScattered Clouds
3:00 PM94.0 °F71.0 °F38 %29.71 in12.0 miESE (110°)2.3 mphScattered Clouds
3:00 PM95.0 °F71.6 °F47 %29.71 in6.2 miESE (110°)2.3 mphPartly Cloudy
4:00 PM98.6 °F71.6 °F42 %29.71 in6.2 miSouth (170°)2.3 mphPartly Cloudy
5:00 PM96.8 °F71.6 °F44 %29.68 in6.2 miSE (140°)2.3 mphPartly Cloudy
6:00 PM95.0 °F71.6 °F47 %29.68 in6.2 miSE (130°)2.3 mphPartly Cloudy
7:00 PM91.4 °F73.4 °F55 %29.68 inSouth (170°)2.3 mphClear
8:00 PM91.4 °F73.4 °F55 %29.71 inCalmClear
9:00 PM88.0 °F76.0 °F61 %29.74 in12.0 miCalm
9:00 PM87.8 °F77.0 °F70 %29.74 inCalmClear
10:00 PM86.0 °F75.2 °F70 %29.77 inNNW (340°)6.9 mphClear
11:00 PM84.2 °F75.2 °F74 %29.77 inNNW (330°)3.5 mphClear
Hourly data recorded from SBTE, located miles away from Teresina, Piaui







STORIES FROM OUR PARTNERS